Location: Newark
(3.8000°S, 102.2500°E)
Time: 20:51:41
(UTC+00:00)

Envisat - Visible Passes

Search period start: 18 September 2020 00:00
Search period end: 28 September 2020 00:00
Orbit: 764 x 766 km, 98.1° (Epoch: 18 September)

Date Brightness Start Highest point End Pass type
(mag) Time Alt. Az. Time Alt. Az. Time Alt. Az.
19 Sep 5.3 11:35:17 10° SSW 11:39:38 29° WSW 11:43:58 10° NW visible
19 Sep 4.2 22:29:02 10° NNE 22:33:53 48° ESE 22:38:46 10° S visible
20 Sep 6.0 21:54:02 10° ENE 21:57:15 17° ESE 22:00:27 10° SE visible
21 Sep 6.2 12:02:24 10° SW 12:04:57 14° WSW 12:07:29 10° WNW visible
22 Sep 4.7 11:23:36 10° S 11:28:19 39° WSW 11:33:01 10° NW visible
22 Sep 4.9 22:17:59 10° NE 22:22:34 35° ESE 22:27:10 10° SSE visible
23 Sep 6.3 21:43:59 10° E 21:45:57 12° ESE 21:47:54 10° SE visible
24 Sep 6.0 11:50:06 10° SSW 11:53:38 19° WSW 11:57:10 10° WNW visible
25 Sep 5.4 22:07:06 10° NE 22:11:15 26° ESE 22:15:24 10° SSE visible
27 Sep 5.5 11:38:10 10° SSW 11:42:20 26° WSW 11:46:29 10° NW visible
27 Sep 4.0 22:31:40 10° NNE 22:36:35 53° ESE 22:41:33 10° S visible
